Velovelo
Português Nederlands 日本語 中文
Español English čeština slovenčina
русский italiano polski norsk
français Deutsch svenska عربي
 
 page précédente
 Envoyer à un ami
 Pour imprimer
 ---> Les Boucles du Verdon 2012 : Résultats du 82 km

Résultats électroniques réalisés par KMS informatique (08 92 68 33 13 - 0,34 €/mn) notre partenaire chronométrage.

ClassDosNomPrénomCatC.c.Temps.... Moy
1 771 MIQUEL KEVIN A 1 02:13:53 36.88
2 769 LOMBARDO ALEXANDRE A 2 02:13:53 36.88
3 792 HALGAND PATRICE B 1 02:14:00 36.85
4 759 FERAUD PIERRE A 3 02:14:33 36.70
5 443 PARA JEROME B 2 02:14:36 36.69
6 602 DELFINO BENJAMIN A 4 02:14:36 36.69
7 568 BOTTAGISI KEVIN A 5 02:14:36 36.69
8 456 DASTOK JEREMIE A 6 02:14:37 36.68
9 588 CHEILAN LUC A 7 02:15:30 36.44
10 758 FERAUD NICOLAS A 8 02:15:31 36.44
11 435 LAIR FREDERIC A 9 02:15:31 36.44
12 773 MORRA ERWANN A 10 02:17:02 36.04
13 554 BARBEROUX ALEXANDRE A 11 02:17:02 36.04
14 609 DONZET PASCAL C 1 02:17:03 36.03
15 787 GALIA CHRISTIAN D 1 02:17:04 36.03
16 426 GERNEZ AMAURY A 12 02:19:25 35.42
17 762 GARZUNEL JEAN A 13 02:19:25 35.42
18 760 FORISSIER SYLVAIN B 3 02:19:26 35.41
19 631 GALY ERIC C 2 02:19:26 35.41
20 774 MORRA GWENAEL A 14 02:19:26 35.41
21 780 SCAVINI JEAN-CHRISTOPHE D 2 02:19:28 35.41
22 665 LLEBA FREDERIC C 3 02:19:29 35.40
23 683 MONTEL ALEXANDRE A 15 02:19:29 35.40
24 567 BOTTAGISI CLAUDE C 4 02:19:31 35.39
25 770 MARO PIERRE A 16 02:19:38 35.36
26 444 BERNARD DANIEL C 5 02:20:27 35.16
27 785 BLOT JEAN-CHARLES B 4 02:20:27 35.16
28 439 JAUME JEAN-MARC C 6 02:20:28 35.15
29 415 PAUL TIMEO A 17 02:20:38 35.11
30 594 COLIN JEAN-VINCENT B 5 02:20:45 35.08
31 678 MEUNIER CATHERINE W2 1 02:21:47 34.83
32 767 HERMITE KEVIN A 18 02:21:47 34.83
33 689 NIZET ERIC B 6 02:21:47 34.83
34 753 BENAREAU IGNAKI C 7 02:21:58 34.78
35 790 OULES FABIEN A 19 02:22:25 34.67
36 655 JAGUELIN CHRISTOPHE B 7 02:23:56 34.31
37 722 SANNIER ALBERT D 3 02:24:17 34.22
38 547 ANDRIEUX NICOLAS B 8 02:24:18 34.22
39 577 BRENIER MICHEL C 8 02:24:18 34.22
40 583 CASI FREDERIC D 4 02:24:19 34.22
41 784 BERTET ALAIN F 1 02:24:19 34.22
42 448 GAUTIER FREDERIC D 5 02:24:20 34.21
43 648 HERCKEL DOMINIQUE E 1 02:24:20 34.21
44 727 SCRIMA OLIVIER C 9 02:24:55 34.07
45 442 BONNET MICHEL C 10 02:24:57 34.07
46 755 BRICHE ERIC C 11 02:25:47 33.87
47 649 HILPRON PHILIPPE B 9 02:25:48 33.87
48 633 GARCIN JEAN-PIERRE D 6 02:27:02 33.58
49 623 FAURE NICOLAS C 12 02:27:02 33.58
50 441 GARCIA JACQUES C 13 02:27:18 33.52
51 651 INVERNON BRUNO C 14 02:27:19 33.52
52 696 INCONNU C 15 02:27:20 33.52
53 724 SCARPA STEPHANE C 16 02:27:21 33.51
54 455 ATKINSON SIMON C 17 02:27:22 33.51
55 765 GROSSO MICHELE B 10 02:27:22 33.51
56 782 CATTEAUX CHRISTOPHE B 11 02:27:22 33.51
57 660 LE-JEUNE PIERRE E 2 02:27:23 33.50
58 777 REVELLI MARCO B 12 02:29:01 33.14
59 751 ARMONDO FABRIZIO B 13 02:29:03 33.13
60 432 VIARENGO MAXIME A 20 02:31:05 32.68
61 764 GINOUX PHILIPPE C 18 02:31:10 32.67
62 461 BUISSON HERVE C 19 02:32:11 32.45
63 423 SIMONIN REGIS D 7 02:32:23 32.41
64 680 MICHEL SEBASTIEN B 14 02:32:24 32.40
65 5 CAPELLI PATRICK D 8 02:32:45 32.33
66 465 VIARENGO ALEXANDRE A 21 02:33:03 32.26
67 553 BAILLY CHRISTOPHE C 20 02:34:09 32.03
68 714 REBUFFAT PHILIPPE A 22 02:34:09 32.03
69 719 ROUSSET JEAN-CHRISTOPHE C 21 02:34:10 32.03
70 763 GAZELLE LOIC A 23 02:34:34 31.95
71 748 ZABLITH LIONEL C 22 02:35:21 31.79
72 676 MAYEUX XAVIER A 24 02:35:21 31.79
73 434 GIORDANA GERARD D 9 02:35:40 31.72
74 670 MARIANINI GILBERT D 10 02:35:40 31.72
75 736 VACCA ROBERT C 23 02:35:54 31.67
76 681 MICHELIS DANIEL D 11 02:35:57 31.66
77 438 PORTRON GUILLAUME A 25 02:35:57 31.66
78 793 DEWITTE LAURE W1 1 02:35:59 31.66
79 674 MATHIS JEAN-CLAUDE C 24 02:36:00 31.65
80 573 BOURRILLON CYRILLE B 15 02:36:00 31.65
81 446 EBOLI GEORGES D 12 02:36:10 31.62
82 458 LUCIO JEAN D 13 02:36:35 31.54
83 641 GIRAUD OLIVIER D 14 02:36:36 31.53
84 452 BERAUD MICHAEL A 26 02:36:36 31.53
85 706 PESTUGGIA PATRICK D 15 02:36:39 31.52
86 433 ADAM ANNE W2 2 02:36:39 31.52
87 703 PEREZ ALAIN C 25 02:36:41 31.52
88 776 OUTREBON EMMANUEL C 26 02:36:41 31.52
89 710 PIVAIN JACKY D 16 02:36:43 31.51
90 424 PIVAIN PATRICK C 27 02:36:44 31.51
91 544 AIRAUT CHRISTOPHE B 16 02:36:55 31.47
92 685 MOSCATELLI CHARLES F 2 02:36:56 31.47
93 420 MASSON OLIVIER B 17 02:37:58 31.26
94 551 AURAN NICOLAS A 27 02:37:59 31.26
95 735 TRIPODI CLAUDE E 3 02:38:00 31.25
96 700 PELISSIER JEROME C 28 02:38:01 31.25
97 595 CONSANI ALAIN C 29 02:38:01 31.25
98 601 DELEUZIERE FREDERIC C 30 02:39:19 30.99
99 403 DIGIOVANNI MICHEL D 17 02:39:21 30.99
100 410 POLIDORI ROLAND F 3 02:39:23 30.98
101 741 VIALA JEAN-LUC D 18 02:39:26 30.97
102 754 BENAREAU-PEDERSEN MALENE W2 3 02:39:27 30.97
103 705 PESCE MARC C 31 02:39:28 30.97
104 656 KELLER NICOLAS C 32 02:40:39 30.74
105 414 ANDREULLI MICHEL D 19 02:40:40 30.73
106 643 GRANAL GILLES D 20 02:40:40 30.73
107 556 BERNARD PIERRE D 21 02:40:41 30.73
108 216 PERRIN FLORENT C 33 02:40:44 30.72
109 778 RIASSETTO BERNARD D 22 02:40:49 30.71
110 672 MARIN NICOLAS Rdom 1 02:40:51 30.70
111 431 MAHEO ANTOINE A 28 02:41:35 30.56
112 447 FREZE FREDERIC B 18 02:41:36 30.56
113 766 GUILBERT JEAN-PIERRE D 23 02:41:36 30.56
114 587 CHAUSSEGROS THIERRY B 19 02:42:07 30.46
115 428 ALLARD THIERRY D 24 02:42:44 30.34
116 222 MARCIANO JEAN-MARC C 34 02:42:52 30.32
117 564 BONNET YVES E 4 02:42:53 30.32
118 571 BOURRELLY CLAUDE D 25 02:42:55 30.31
119 590 CIANCHETTI HENRI HDI 1 02:42:56 30.31
120 559 BETBEDER JEAN-CLAUDE E 5 02:43:00 30.29
121 542 AFONSO CLAUDE B 20 02:43:22 30.23
122 231 LAQUERBE JEROME B 21 02:43:28 30.21
123 233 BARRAL ERIC C 35 02:43:29 30.20
124 107 COSTE REMY C 36 02:43:30 30.20
125 677 MAZE GILLES D 26 02:44:20 30.05
126 406 MICHEL PATRICE C 37 02:45:31 29.83
127 619 ESMINGEAUD ERIC C 38 02:45:32 29.83
128 687 MURCIA LAURENT B 22 02:45:32 29.83
129 464 PAILLOT THIERRY C 39 02:45:35 29.82
130 405 DURET HERVE C 40 02:45:35 29.82
131 783 BIARD AGNES W2 4 02:45:35 29.82
132 695 PAILLOT DIANA W1 2 02:45:35 29.82
133 445 TERZIBACHIAN FRANCK F 4 02:45:37 29.82
134 768 LE-GALL MARC C 41 02:45:39 29.81
135 417 CHABALIER CHRISTIAN D 27 02:45:40 29.81
136 578 BRIZI ANGE D 28 02:45:58 29.75
137 788 GIRAND DIDIER D 29 02:47:19 29.51
138 457 HUMANN PHILIPPE E 6 02:49:05 29.20
139 711 PONTECAILLE ROBERT D 30 02:49:31 29.13
140 449 PELLEGRIN CHRISTIAN D 31 02:49:40 29.10
141 625 FIAT NATHALIE W2 5 02:49:40 29.10
142 450 MASSOT JEAN-CHRISTOPHE D 32 02:49:41 29.10
143 603 DEMANGE BERNARD F 5 02:49:46 29.09
144 789 NICOLAIEFF LUC E 7 02:49:47 29.08
145 462 BERNARD ISABELLE W2 6 02:49:53 29.07
146 702 PELLEGRIN GUILLAUME C 42 02:50:24 28.98
147 591 CIVEYRAC MICHEL D 33 02:50:25 28.98
148 421 DAYRAUT OLIVIER C 43 02:50:26 28.97
149 597 CROLLARD GEORGES D 34 02:50:43 28.93
150 422 DAYRAUT FREDERIC B 23 02:50:50 28.91
151 717 RENAUT BRUNO C 44 02:52:04 28.70
152 219 MARTIN ANDRE C 45 02:52:27 28.63
153 646 GULLY DJAMEL B 24 02:52:40 28.60
154 634 GARNIER MICHEL D 35 02:52:41 28.60
155 742 VIENCO ROBERT E 8 02:52:41 28.60
156 570 BOURRELLY ALEXANDRE A 29 02:52:43 28.59
157 745 VUCHENER JEAN-PAUL E 9 02:52:44 28.59
158 654 JACQUOT MARC A 30 02:52:45 28.58
159 552 AUZET STEPHANE C 46 02:52:46 28.58
160 463 CLERICI DANIEL D 36 02:52:47 28.58
161 698 PARRA FRANCIS F 6 02:52:47 28.58
162 569 BOURON ANNE W2 7 02:52:49 28.57
163 616 DUTHE ALAIN D 37 02:54:41 28.27
164 642 GORDILLO ANTOINE E 10 02:54:42 28.27
165 584 CASTELLANOS VALERIE W2 8 02:54:42 28.27
166 549 ZAMBONI MICHEL D 38 02:54:48 28.25
167 546 ANDRIEUX MICHEL E 11 02:54:51 28.24
168 721 SALMON ALAIN E 12 02:54:53 28.24
169 548 ARNAUD ANDRE D 39 02:54:55 28.23
170 757 DI-TORO ALBERT D 40 02:54:56 28.23
171 629 GABRIELLI ROBERT C 47 02:55:28 28.14
172 775 NIGLIO KEVIN A 31 02:57:37 27.80
173 662 LECLAIR MARTIAL C 48 02:58:19 27.69
174 565 BORGHESE YVES D 41 02:58:22 27.68
175 701 PELLEGRIN ARNAUD C 49 02:58:22 27.68
176 664 LEWIT PATRICK D 42 02:58:23 27.68
177 737 VALSASINA JOEL B 25 02:58:24 27.68
178 684 MORRELL NICHOLAS F 7 02:58:25 27.68
179 543 AGOSTI JEAN-MARIE E 13 02:58:33 27.66
180 699 PAUL NICOLAS B 26 02:58:35 27.65
181 637 GAZZANO ALAIN E 14 02:58:38 27.64
182 707 PETRICOUL JEAN-LUC D 43 02:58:52 27.61
183 608 DIDELOT DIDIER D 44 02:59:01 27.58
184 739 VELOSO SERGE C 50 02:59:01 27.58
185 781 VACHIER AURORE W1 3 02:59:02 27.58
186 430 AUBERT CHRISTIAN D 45 02:59:02 27.58
187 666 LLEBA SYLVIE W1 4 02:59:03 27.58
188 725 SCHNEIDER HENRI D 46 02:59:04 27.58
189 614 DUPONT FABIEN B 27 02:59:15 27.55
190 650 HUGUES CHRISTINE W3 1 03:00:58 27.29
191 668 MALDONADO VERONIQUE W2 9 03:01:00 27.28
192 647 GUYOT PASCAL D 47 03:01:02 27.28
193 718 RIVIERE VALERIE W1 5 03:01:29 27.21
194 723 SARDY JEROME B 28 03:01:30 27.21
195 675 MAYER DANIEL E 15 03:01:30 27.21
196 697 PANATTONI FABIEN C 51 03:02:29 27.06
197 466 BRIANCON PATRICK C 52 03:02:30 27.06
198 593 COCHE MURIELLE W2 10 03:02:30 27.06
199 632 GARAIX YVAN F 8 03:05:52 26.57
200 750 ALPHONSE JEAN-NOEL C 53 03:05:56 26.56
201 154 MAILLIER JEAN-PAUL D 48 03:06:10 26.52
202 720 RUSSO PASCAL E 16 03:06:25 26.49
203 658 LANNE GERARD D 49 03:06:46 26.44
204 600 DELABAERE OLIVIER C 54 03:06:46 26.44
205 682 MONNOT JEAN-CLAUDE E 17 03:07:02 26.40
206 663 LEON HERVE E 18 03:07:03 26.40
207 624 FAVAREL HERVE C 55 03:07:05 26.39
208 709 PITTAVINO CHRISTIAN D 50 03:07:06 26.39
209 671 MARIN MICHEL D 51 03:07:07 26.39
210 581 BRUNIER FRANCOIS B 29 03:07:09 26.39
211 453 BERAUD PATRICK D 52 03:07:10 26.38
212 621 FABRE GERARD C 56 03:08:06 26.25
213 52 ABO MAURICE D 53 03:08:49 26.15
214 454 PINI GERARD D 54 03:10:54 25.87
215 419 PANTANO DIDIER C 57 03:13:25 25.53
216 733 TOURETTE FRANCOIS D 55 03:13:42 25.49
217 615 DURANTIN MAX E 19 03:13:56 25.46
218 596 CONSTANTIN RENE E 20 03:13:56 25.46
219 715 REBUFFAT SERGE E 21 03:14:03 25.45
220 744 VIRON CHRISTIAN D 56 03:15:09 25.30
221 692 NOVELLI JEAN-MARC D 57 03:15:24 25.27
222 731 SOULAGE JEAN-PIERRE E 22 03:15:24 25.27
223 708 PIERARD PHILIPPE C 58 03:15:26 25.27
224 622 FAURE JEAN-PIERRE D 58 03:15:26 25.27
225 555 BAUCHIERE BRIGITTE W2 11 03:15:27 25.26
226 639 GIOVANELLI PATRICK D 59 03:15:49 25.22
227 401 DITORO JOSEPH B 30 03:16:39 25.11
228 592 CLOUZET BERNARD E 23 03:17:46 24.97
229 110 CRESTEL DIDIER E 24 03:18:56 24.82
230 598 DAVID LIONEL C 59 03:19:00 24.81
231 402 LOUSTALET LIONEL B 31 03:19:26 24.76
232 589 CHOPPARD ALAIN F 9 03:20:22 24.64
233 746 WEBERT BRIGITTE W3 2 03:20:43 24.60
234 562 BOFFET ROBERT E 25 03:20:43 24.60
235 416 CAMACHO RUI D 60 03:20:43 24.60
236 585 CATTEAUX JEAN-FRANCOIS D 61 03:20:43 24.60
237 575 BRACHET FREDERIC C 60 03:20:46 24.60
238 425 VIEU LAURENT B 32 03:21:02 24.56
239 574 BRACCALENTI YANN A 32 03:21:28 24.51
240 617 EGEA MICHEL D 62 03:22:02 24.44
241 427 ESMIOL SILDRIC B 33 03:22:57 24.33
242 686 MULLER GILBERT F 10 03:24:25 24.16
243 713 RAVERA RICHARD D 63 03:24:32 24.14
244 418 GIANNINI GERARD F 11 03:27:32 23.79
245 607 DEVIENNE BERNARD F 12 03:28:30 23.68
246 572 BOURRELLY JEAN-PIERRE D 64 03:28:32 23.68
247 652 JACQUEMART JEAN-PIERRE D 65 03:28:32 23.68
248 545 ALVES ALBERTINO F 13 03:28:32 23.68
249 586 CEDOLIN ALIZEE W1 6 03:28:33 23.68
250 436 MORRIS BRUNO D 66 03:29:39 23.55
251 437 BELLEC JEAN-PIERRE C 61 03:29:39 23.55
252 604 DESROCHES ETIENNE F 14 03:30:03 23.51
253 605 DESROCHES FRANCOISE W3 3 03:30:04 23.51
254 627 FRETARD CHRISTOPHE C 62 03:31:33 23.34
255 628 FRONTIL FABIEN D 67 03:32:22 23.25
256 404 ROUX AGNES W2 12 03:33:14 23.16
257 729 SIARRAS ANDY C 63 03:33:59 23.08
258 613 DUPLAND ALAIN E 26 03:34:34 23.01
259 740 VIAL DAVID C 64 03:35:01 22.97
260 566 BORIE JEAN-PIERRE D 68 03:36:00 22.86
261 440 INCONNU C 65 03:36:01 22.86
262 132 GONZALEZ GUY F 15 03:36:39 22.79
263 659 LARDY ALAIN F 16 03:37:04 22.75
264 582 BRUNO GONZAGUE C 66 03:37:35 22.69
265 612 DUMESNIL ROBERT F 17 03:37:36 22.69
266 606 DEVESA JEAN D 69 03:38:21 22.62
267 635 GAUTIER CHRISTIAN TMIX 1 03:38:52 22.56
268 213 BROCHEN MICHELLE W2 13 03:39:19 22.52
269 558 BESSON GERARD D 70 03:39:36 22.49
270 747 WEBERT JEAN-FRANCOIS D 71 03:44:44 21.97
271 761 FOURTIN MYRIAM W3 4 03:45:37 21.89
272 413 VALLA TEDDY A 33 03:45:39 21.88
273 644 GUILLOBEZ BERNADETTE W3 5 03:45:53 21.86
274 645 GUILLOBEZ SERGE F 18 03:45:55 21.86
275 638 GIOVAGNOLI FRANK C 67 03:52:19 21.26
276 459 GARAVAERO ALAIN C 68 03:59:13 20.64
277 460 PASCAL CHRISTOPHE C 69 03:59:14 20.64
278 429 ATTALI ALAIN D 72 04:02:28 20.37
279 728 SERETTI FRANCOIS D 73 04:03:04 20.32
280 550 AUNE-ASTOIN RENE F 19 04:03:07 20.31
281 679 MICHEL GERARD F 20 04:03:08 20.31
282 411 MARANGES PHILIPPE C 70 04:06:07 20.06
283 412 GHESQUIERE FRANCOISE W3 6 04:06:08 20.06

Haut 









Haut  
 Espace privé   Droits d’auteur-Copyright: Cliquez ici pour lire !